Location: Unspecified
(0.0000°N, 0.0000°E)
Time: 19:42:31
(UTC+00:00)

ISS - Visible Passes

Search period start: 09 August 2022 00:00
Search period end: 19 August 2022 00:00
Orbit: 412 x 419 km, 51.6° (Epoch: 09 August)

Date Brightness Start Highest point End Pass type
(mag) Time Alt. Az. Time Alt. Az. Time Alt. Az.
09 Aug -2.8 18:59:08 10° N 19:02:05 30° NE 19:03:03 25° E visible
10 Aug -1.4 19:47:33 10° WNW 19:49:58 19° SW 19:50:05 19° SW visible
11 Aug -2.8 18:58:08 10° NW 19:01:19 44° SW 19:04:13 12° SSE visible
14 Aug -1.1 04:57:24 10° S 04:59:42 17° SE 05:02:00 10° E visible
16 Aug -3.9 04:57:23 32° SW 04:58:46 89° WNW 05:02:06 10° NE visible
17 Aug -1.3 04:11:24 23° E 04:11:24 23° E 04:13:04 10° ENE visible
18 Aug -1.8 04:58:17 16° NW 04:58:17 16° NW 05:00:00 10° N visible
